TimeCEST,TemperatureF,Dew PointF,Humidity,Sea Level PressureIn,VisibilityMPH,Wind Direction,Wind SpeedMPH,Gust SpeedMPH,PrecipitationIn,Events,Conditions,WindDirDegrees,DateUTC
12:00 AM,59.0,57.2,94,30.09,6.2,WSW,11.5,-,N/A,,Mostly Cloudy,250,2013-08-19 22:00:00
12:30 AM,59.0,57.2,94,30.09,6.2,West,11.5,-,N/A,,Partly Cloudy,260,2013-08-19 22:30:00
1:00 AM,59.0,57.2,94,30.12,-9999.0,West,12.7,-,N/A,,Clear,260,2013-08-19 23:00:00
1:30 AM,59.0,57.2,94,30.12,-9999.0,WSW,11.5,-,N/A,,Clear,250,2013-08-19 23:30:00
2:00 AM,57,55,92,30.13,12,WSW,6.7,,,,Partly Cloudy,250,2013-08-20 00:00:00
2:00 AM,57.2,55.4,94,30.12,-9999.0,West,8.1,-,N/A,,Clear,260,2013-08-20 00:00:00
2:30 AM,57.2,55.4,94,30.12,-9999.0,West,8.1,-,N/A,,Clear,260,2013-08-20 00:30:00
3:00 AM,55.4,53.6,94,30.15,-9999.0,West,5.8,-,N/A,,Clear,260,2013-08-20 01:00:00
3:30 AM,55.4,53.6,94,30.15,-9999.0,West,11.5,-,N/A,,Clear,260,2013-08-20 01:30:00
4:00 AM,55.4,53.6,94,30.15,-9999.0,West,8.1,-,N/A,,Clear,260,2013-08-20 02:00:00
4:30 AM,55.4,53.6,94,30.15,-9999.0,West,6.9,-,N/A,,Clear,270,2013-08-20 02:30:00
5:00 AM,55.4,53.6,94,30.15,-9999.0,West,8.1,-,N/A,,Clear,270,2013-08-20 03:00:00
5:30 AM,55.4,51.8,88,30.18,-9999.0,West,8.1,-,N/A,,Clear,260,2013-08-20 03:30:00
6:00 AM,53.6,51.8,94,30.18,6.2,WSW,6.9,-,N/A,,Partly Cloudy,250,2013-08-20 04:00:00
6:30 AM,53.6,51.8,94,30.18,-9999.0,WSW,8.1,-,N/A,,Clear,250,2013-08-20 04:30:00
7:00 AM,53.6,51.8,94,30.21,6.2,WSW,6.9,-,N/A,,Partly Cloudy,250,2013-08-20 05:00:00
7:30 AM,55.4,51.8,88,30.21,6.2,WSW,5.8,-,N/A,,Mostly Cloudy,240,2013-08-20 05:30:00
8:00 AM,56,53,85,30.22,25,SW,6.7,,,,Mostly Cloudy,230,2013-08-20 06:00:00
8:00 AM,55.4,51.8,88,30.21,6.2,SW,8.1,-,N/A,,Mostly Cloudy,230,2013-08-20 06:00:00
8:30 AM,55.4,53.6,94,30.21,6.2,WSW,10.4,-,N/A,,Mostly Cloudy,250,2013-08-20 06:30:00
9:00 AM,55.4,53.6,94,30.21,6.2,West,12.7,-,N/A,,Overcast,270,2013-08-20 07:00:00
9:30 AM,57.2,53.6,88,30.24,6.2,West,11.5,-,N/A,,Overcast,280,2013-08-20 07:30:00
9:54 AM,57.2,51.8,82,30.24,6.2,NW,12.7,-,N/A,,Mostly Cloudy,310,2013-08-20 07:54:00
10:00 AM,57.2,51.8,82,30.24,6.2,NW,12.7,-,N/A,,Light Drizzle,310,2013-08-20 08:00:00
10:15 AM,57.2,53.6,88,30.27,6.2,NNW,11.5,-,N/A,,Overcast,330,2013-08-20 08:15:00
10:30 AM,57.2,53.6,88,30.27,6.2,NNW,13.8,-,N/A,,Overcast,340,2013-08-20 08:30:00
11:00 AM,57.2,51.8,82,30.27,6.2,NNW,13.8,-,N/A,Rain,Light Rain,340,2013-08-20 09:00:00
11:04 AM,57.2,51.8,82,30.27,6.2,NNW,12.7,-,N/A,,Overcast,340,2013-08-20 09:04:00
11:30 AM,57.2,53.6,88,30.27,6.2,NNW,11.5,-,N/A,,Overcast,340,2013-08-20 09:30:00
12:00 PM,59.0,51.8,77,30.30,6.2,NNW,11.5,-,N/A,,Overcast,340,2013-08-20 10:00:00
12:30 PM,59.0,53.6,82,30.30,6.2,NNW,11.5,-,N/A,,Overcast,330,2013-08-20 10:30:00
1:00 PM,60.8,53.6,77,30.30,6.2,NW,11.5,-,N/A,,Overcast,320,2013-08-20 11:00:00
1:30 PM,60.8,51.8,72,30.30,6.2,NNW,11.5,-,N/A,,Mostly Cloudy,330,2013-08-20 11:30:00
2:00 PM,62,51,59,30.30,28,NNW,13.4,,,,Partly Cloudy,330,2013-08-20 12:00:00
2:00 PM,64.4,53.6,68,30.30,6.2,North,13.8,-,N/A,,Mostly Cloudy,350,2013-08-20 12:00:00
2:30 PM,62.6,51.8,68,30.30,6.2,NW,12.7,-,N/A,,Mostly Cloudy,320,2013-08-20 12:30:00
3:00 PM,62.6,53.6,72,30.30,6.2,NNW,11.5,-,N/A,,Mostly Cloudy,340,2013-08-20 13:00:00
3:30 PM,62.6,51.8,68,30.30,6.2,NW,10.4,-,N/A,,Partly Cloudy,320,2013-08-20 13:30:00
4:00 PM,64.4,51.8,64,30.30,6.2,NW,13.8,-,N/A,,Scattered Clouds,320,2013-08-20 14:00:00
4:30 PM,64.4,50.0,59,30.30,6.2,NNW,12.7,-,N/A,,Scattered Clouds,340,2013-08-20 14:30:00
4:41 PM,62.6,51.8,68,30.30,6.2,North,11.5,-,N/A,Rain,Light Rain Showers,350,2013-08-20 14:41:00
4:52 PM,60.8,53.6,77,30.30,6.2,North,10.4,-,N/A,,Partly Cloudy,350,2013-08-20 14:52:00
5:00 PM,62.6,53.6,72,30.30,6.2,North,6.9,-,N/A,,Partly Cloudy,360,2013-08-20 15:00:00
5:30 PM,62.6,51.8,68,30.30,6.2,NNW,5.8,-,N/A,,Partly Cloudy,330,2013-08-20 15:30:00
6:00 PM,62.6,51.8,68,30.30,-9999.0,NNW,8.1,-,N/A,,Clear,330,2013-08-20 16:00:00
6:30 PM,62.6,50.0,63,30.33,6.2,NNW,12.7,-,N/A,,Partly Cloudy,340,2013-08-20 16:30:00
7:00 PM,59.0,48.2,67,30.33,6.2,North,11.5,-,N/A,,Partly Cloudy,360,2013-08-20 17:00:00
7:30 PM,59.0,50.0,72,30.33,6.2,North,6.9,-,N/A,,Partly Cloudy,350,2013-08-20 17:30:00
8:00 PM,58,50,68,30.34,31,NNW,4.5,,,,Partly Cloudy,340,2013-08-20 18:00:00
8:00 PM,57.2,50.0,77,30.33,-9999.0,NNW,5.8,-,N/A,,Clear,340,2013-08-20 18:00:00
8:30 PM,57.2,50.0,77,30.33,-9999.0,NNW,4.6,-,N/A,,Clear,340,2013-08-20 18:30:00
9:00 PM,55.4,50.0,82,30.36,-9999.0,WNW,4.6,-,N/A,,Clear,300,2013-08-20 19:00:00
9:30 PM,53.6,50.0,88,30.36,-9999.0,West,4.6,-,N/A,,Clear,270,2013-08-20 19:30:00
10:00 PM,53.6,50.0,88,30.36,6.2,WSW,4.6,-,N/A,,Partly Cloudy,250,2013-08-20 20:00:00
10:30 PM,53.6,50.0,88,30.36,6.2,West,5.8,-,N/A,,Scattered Clouds,260,2013-08-20 20:30:00
11:00 PM,51.8,50.0,94,30.36,6.2,WSW,5.8,-,N/A,,Scattered Clouds,250,2013-08-20 21:00:00
11:30 PM,51.8,50.0,94,30.36,6.2,West,6.9,-,N/A,,Partly Cloudy,260,2013-08-20 21:30:00